This is the latest recevied weather packets stored in our database for station/object YU7OR-2. If no packets are shown the sender has not sent any weather packets the latest 10 day(s).
| Time | Temp. | Humidity | Pressure | Rain* | Wind** | Luminosity | Snow |
|---|---|---|---|---|---|---|---|
| 1777179964 | 12.22° C | 58% | 1012.8 hPa | 0 mm | - | - | - |
| 1777179694 | 11.67° C | 61% | 1012.4 hPa | 0 mm | - | - | - |
| 1777179404 | 11.67° C | 58% | 1012.2 hPa | 0 mm | - | - | - |
| 1777179114 | 11.67° C | 58% | 1012.2 hPa | 0 mm | - | - | - |
| 1777178857 | 11.11° C | 59% | 1011.9 hPa | 0 mm | - | - | - |
| 1777178604 | 11.11° C | 60% | 1011.8 hPa | 0 mm | - | - | - |
| 1777178344 | 11.11° C | 61% | 1011.6 hPa | 0 mm | - | - | - |
| 1777178089 | 11.11° C | 62% | 1011.5 hPa | 0 mm | - | - | - |
| 1777177829 | 11.11° C | 62% | 1011.3 hPa | 0 mm | - | - | - |
| 1777177536 | 11.11° C | 62% | 1011.1 hPa | 0 mm | - | - | - |
| 1777177264 | 11.11° C | 62% | 1011.1 hPa | 0 mm | - | - | - |
| 1777176964 | 11.11° C | 62% | 1010.9 hPa | 0 mm | - | - | - |
| 1777176669 | 12.22° C | 63% | 1010.7 hPa | 0 mm | - | - | - |
| 1777176369 | 12.22° C | 62% | 1010.7 hPa | 0 mm | - | - | - |
| 1777176119 | 12.22° C | 62% | 1010.7 hPa | 0 mm | - | - | - |
| 1777175844 | 12.22° C | 62% | 1010.6 hPa | 0 mm | - | - | - |
| 1777175592 | 12.78° C | 59% | 1010.4 hPa | 0 mm | - | - | - |
| 1777175324 | 12.22° C | 58% | 1010.2 hPa | 0 mm | - | - | - |
| 1777175036 | 12.22° C | 57% | 1010 hPa | 0 mm | - | - | - |
| 1777174764 | 12.22° C | 57% | 1010 hPa | 0 mm | - | - | - |
| 1777174524 | 11.67° C | 56% | 1010 hPa | 0 mm | - | - | - |
| 1777174254 | 11.11° C | 57% | 1009.8 hPa | 0 mm | - | - | - |
| 1777173959 | 11.11° C | 57% | 1009.8 hPa | 0 mm | - | - | - |
| 1777173679 | 10.56° C | 60% | 1009.8 hPa | 0 mm | - | - | - |
| 1777173404 | 10.56° C | 60% | 1009.8 hPa | 0 mm | - | - | - |
* Rain latest hour (hover to see other rain measurements)
** Current wind speed in m/s (hover to see current wind gust speed)